{"data":{"norad_id":68064,"epoch":"2026-09-20T04:11:32.853984Z","epoch_age_seconds":87628,"freshness":"FRESH","line1":"1 68064U 26041AA  26263.17468581  .00012954  00000+0  39383-3 0  9995","line2":"2 68064  53.1604 220.9166 0001218  94.1828 265.9313 15.34403423 31243","mean_motion":15.34403423,"eccentricity":0.0001218,"inclination_deg":53.1604,"raan_deg":220.9166,"arg_perigee_deg":94.1828,"mean_anomaly_deg":265.9313,"bstar":0.00039383,"rev_number":3124,"period_min":93.847548722524,"perigee_km":461.85985324657,"apogee_km":463.52627945074,"semimajor_km":6840.8300663487,"source":"CELESTRAK","updated_at":"2026-09-20T09:00:43.751924Z"}}